CYGFM03 (41891 NORAD) Tracking and Keplerian Element Data

This shows tracking and keplerian element data for the satellite.

Feedback or suggestion? Click here.




ElementValue
Catalog41891
NameCYGFM03
Epoch Orbit41474
Epoch Day159.8800925
Epoch Year2024
RAAN344.747
Inclination34.9509
Eccentricity0.000932
Argument of Perigee118.7576
Mean Anonmoly241.4077
Mean Motion15.27784038
Decay Rate0.00015066
L11 41891U 16078H 24159.88009250 .00015066 00000+0 54100-3 0 9998
L22 41891 34.9509 344.7470 0009320 118.7576 241.4077 15.27784038414743



Live tracking and technical data element details for CYGFM03 (NORAD 41891). CYGFM03 can be tracked NOW for your location showing map with azimuth and elevation plus other details from your city location.







IsCatalogInMostPopularTable: catalog: 41891, numindb: 612
Update: records affected: 1



GetName: 41891 CYGFM03

Hit Count: updated at: Mon, 17 Jun 2024 22:34:28 GMT